User: anonymous   Login
Location: Albany
(35.0000°S, 118.0000°E)
Time: 10:33:28
(UTC-04:00)
Language:

Cosmos 1933 - Orbit

View from above orbital plane
View from above orbital plane
View from above satellite
View from above satellite

Ground track
Ground track

The orbit data is extracted from the following two-line orbital elements,

1 18958U 88020A   18114.64163440 -.00000091 +00000-0 -87620-5 0  9992
2 18958 082.5295 163.2831 0010129 307.8506 052.1803 15.03428218617153
Epoch (UTC): 24 April 2018 15:23:57
Eccentricity: 0.0010129
inclination: 82.5295°
perigee height: 549 km
apogee height: 563 km
right ascension of ascending node: 163.2831°
argument of perigee: 307.8506°
revolutions per day: 15.03428218
mean anomaly at epoch: 52.1803°
orbit number at epoch: 61715

The dashed part of the orbit path shows where the satellite is in the earth's shadow,  

DLR